HS3PIK-2 Weather Reports


time (UTC)temp
F
wind
direction
speed
knots
gust
knots
rain 1hr
in
rain 24hr
in
rain mn
in
humidity
%
barometer
mb
20260504150328 87 0 0.0 0.0 0.00 0.00 0.00 77
20260504140904 87 0 0.0 0.0 0.00 0.00 0.00 76
20260504140625 87 0 0.0 0.0 0.00 0.00 0.00 76
20260504140213 87 0 0.0 0.0 0.00 0.00 0.00 77
20260504130814 88 0 0.0 0.0 0.00 0.00 0.00 76
20260504130800 87 0 0.0 0.0 0.00 0.00 0.00 77
20260504110244 85 0 0.0 0.0 0.00 0.00 0.00 80
20260504100230 86 0 0.0 0.0 0.00 0.00 0.00 78
20260504080752 85 0 0.0 0.0 0.00 0.00 0.00 74
20260504080222 85 0 0.0 0.0 0.00 0.00 0.00 75
20260504070205 91 0 0.0 0.0 0.00 0.00 0.00 73
20260504060148 99 0 0.0 0.0 0.00 0.00 0.00 55
20260504050721 98 0 0.0 0.0 0.00 0.00 0.00 57
20260504050151 98 0 0.0 0.0 0.00 0.00 0.00 57
20260504045626 97 0 0.0 0.0 0.00 0.00 0.00 58
20260504045101 96 0 0.0 0.0 0.00 0.00 0.00 59
20260504044531 96 0 0.0 0.0 0.00 0.00 0.00 58
20260504044001 96 0 0.0 0.0 0.00 0.00 0.00 61
20260504043735 96 0 0.0 0.0 0.00 0.00 0.00 59
20260504043207 96 0 0.0 0.0 0.00 0.00 0.00 61
20260504042643 96 0 0.0 0.0 0.00 0.00 0.00 59
20260504042115 96 0 0.0 0.0 0.00 0.00 0.00 59
20260504041553 96 0 0.0 0.0 0.00 0.00 0.00 60
20260504041020 96 0 0.0 0.0 0.00 0.00 0.00 59
20260504040453 96 0 0.0 0.0 0.00 0.00 0.00 61
20260504035925 95 0 0.0 0.0 0.00 0.00 0.00 62
20260504035358 95 0 0.0 0.0 0.00 0.00 0.00 63
20260504034830 94 0 0.0 0.0 0.00 0.00 0.00 62
20260504034303 94 0 0.0 0.0 0.00 0.00 0.00 62
20260504033733 94 0 0.0 0.0 0.00 0.00 0.00 62
20260504033208 93 0 0.0 0.0 0.00 0.00 0.00 64
20260504032638 93 0 0.0 0.0 0.00 0.00 0.00 65
20260504032111 93 0 0.0 0.0 0.00 0.00 0.00 65
20260504031541 92 0 0.0 0.0 0.00 0.00 0.00 65
20260504031013 92 0 0.0 0.0 0.00 0.00 0.00 65
20260504030448 92 0 0.0 0.0 0.00 0.00 0.00 65
20260504025921 92 0 0.0 0.0 0.00 0.00 0.00 66
20260504025353 92 0 0.0 0.0 0.00 0.00 0.00 68
20260504024826 92 0 0.0 0.0 0.00 0.00 0.00 68
20260504024258 92 0 0.0 0.0 0.00 0.00 0.00 70
20260504023728 91 0 0.0 0.0 0.00 0.00 0.00 70
20260504023203 91 0 0.0 0.0 0.00 0.00 0.00 71
20260504022639 90 0 0.0 0.0 0.00 0.00 0.00 71
20260504022114 90 0 0.0 0.0 0.00 0.00 0.00 72
20260504021549 90 0 0.0 0.0 0.00 0.00 0.00 72
20260504021021 90 0 0.0 0.0 0.00 0.00 0.00 74
20260504020451 90 0 0.0 0.0 0.00 0.00 0.00 74
20260504015924 89 0 0.0 0.0 0.00 0.00 0.00 74
20260504015357 89 0 0.0 0.0 0.00 0.00 0.00 75
20260504014832 88 0 0.0 0.0 0.00 0.00 0.00 76
20260504014302 88 0 0.0 0.0 0.00 0.00 0.00 76
20260504013731 88 0 0.0 0.0 0.00 0.00 0.00 77
20260504013204 88 0 0.0 0.0 0.00 0.00 0.00 77
20260504012637 87 0 0.0 0.0 0.00 0.00 0.00 78
20260504012107 87 0 0.0 0.0 0.00 0.00 0.00 78
20260504011542 87 0 0.0 0.0 0.00 0.00 0.00 78
20260504011017 86 0 0.0 0.0 0.00 0.00 0.00 79
20260504010449 86 0 0.0 0.0 0.00 0.00 0.00 79
20260504005917 85 0 0.0 0.0 0.00 0.00 0.00 79
20260504005347 85 0 0.0 0.0 0.00 0.00 0.00 79
20260504004819 85 0 0.0 0.0 0.00 0.00 0.00 79
20260504004252 85 0 0.0 0.0 0.00 0.00 0.00 79
20260504003725 84 0 0.0 0.0 0.00 0.00 0.00 80
20260504003157 84 0 0.0 0.0 0.00 0.00 0.00 80
20260504002630 83 0 0.0 0.0 0.00 0.00 0.00 82
20260504002102 83 0 0.0 0.0 0.00 0.00 0.00 81
20260504001535 83 0 0.0 0.0 0.00 0.00 0.00 81
20260504001007 83 0 0.0 0.0 0.00 0.00 0.00 82
20260504000437 83 0 0.0 0.0 0.00 0.00 0.00 82
20260503235907 82 0 0.0 0.0 0.00 0.00 0.00 84
20260503235340 81 0 0.0 0.0 0.00 0.00 0.00 85
20260503234812 80 0 0.0 0.0 0.00 0.00 0.00 86
20260503233742 79 0 0.0 0.0 0.00 0.00 0.00 88
20260503175946 85 0 0.0 0.0 0.00 0.00 0.00 79
20260503175419 85 0 0.0 0.0 0.00 0.00 0.00 78
20260503174851 86 0 0.0 0.0 0.00 0.00 0.00 77
20260503174326 86 0 0.0 0.0 0.00 0.00 0.00 77
20260503173756 87 0 0.0 0.0 0.00 0.00 0.00 76
20260503173229 87 0 0.0 0.0 0.00 0.00 0.00 75
20260503172704 87 0 0.0 0.0 0.00 0.00 0.00 75
20260503172137 87 0 0.0 0.0 0.00 0.00 0.00 75
20260503171609 87 0 0.0 0.0 0.00 0.00 0.00 75
20260503171042 88 0 0.0 0.0 0.00 0.00 0.00 75
20260503170514 88 0 0.0 0.0 0.00 0.00 0.00 74
20260503150500 91 0 0.0 0.0 0.00 0.00 0.00 70